Flag for Germany Weather past 2 weeks in Mülheim, North Rhine-Westphalia, Germany

45 °F

Rain. Broken clouds.

Feels Like: 45 °F
Forecast: 47 / 52 °F
Wind: 1 mph from North

Location: Koeln / Bonn

Current Time: Dec 1, 2015 at 10:59:22 AM

Latest Report: Dec 1, 2015 at 10:20 AM

Visibility: 4 mi

Pressure: 30.24 "Hg

Humidity: 100%

Dew point: 45 °F

Location of MülheimLocation

Historic Weather in Mülheim — Graph


Mülheim temperature yesterday

Maximum temperature yesterday: 54 °F (at 6:20 PM)
Minimum temperature yesterday: 46 °F (at 1:50 AM)
Average temperature yesterday: 49 °F

Past Weeks' High & Low Weather Summary

High61 °F (Nov 17, 11:20 AM)100% (Nov 16, 11:20 PM)30.27 "Hg (Nov 16, 11:20 PM)
Low30 °F (Nov 26, 11:20 PM)59% (Nov 18, 9:50 AM)29.39 "Hg (Nov 21, 1:50 PM)
Average44 °F87%29.89 "Hg
* Reported Nov 16 9:20 AM — Dec 1 9:50 AM, Mülheim, Weather by CustomWeather, © 2015

Note: Actual official high and low records may vary slightly from our data, if they occured in-between our weather recording intervals... More about our weather records


Mülheim weather history for previous 24 hours

Time TempWeatherWind HumidityBarometerVisibility
9:50 AM
Tue, Dec 1
45 °FLight rain. More clouds than sun.2 mph100%30.21 "Hg4 mi
8:50 AM45 °FLight rain. More clouds than sun.5 mph100%30.21 "Hg4 mi
8:20 AM45 °FRain. More clouds than sun.7 mph100%30.18 "Hg5 mi
7:50 AM46 °FRain. Mostly cloudy.8 mph100%30.18 "Hg6 mi
7:20 AM46 °FRain. Partly cloudy.7 mph100%30.15 "Hg5 mi
6:50 AM46 °FDrizzle. Overcast.8 mph100%30.15 "Hg4 mi
5:50 AM48 °FDrizzle. Mostly cloudy.14 mph100%30.12 "Hg4 mi
5:20 AM50 °FRain. Mostly cloudy.12 mph100%30.09 "HgN/A
4:50 AM50 °FLight rain. Mostly cloudy.13 mph100%30.09 "HgN/A
4:20 AM52 °FRain. Passing clouds.14 mph94%30.07 "HgN/A
3:50 AM54 °FLight rain. Low clouds.12 mph94%30.07 "HgN/A
3:20 AM52 °FLight rain. Passing clouds.12 mph94%30.07 "HgN/A
2:50 AM54 °FLight rain. Passing clouds.14 mph88%30.04 "HgN/A
2:20 AM54 °FLight rain. Partly cloudy.23 mph88%30.04 "HgN/A
1:50 AM54 °FLight rain. Mostly cloudy.25 mph88%30.01 "HgN/A
12:50 AM54 °FLight rain. Overcast.14 mph82%29.98 "HgN/A
12:20 AM54 °FLight rain. Passing clouds.24 mph82%29.98 "HgN/A
11:20 PM
Mon, Nov 30
54 °FLight rain. Passing clouds.30 mph82%29.95 "HgN/A
10:50 PM52 °FLight rain. Overcast.24 mph88%29.95 "HgN/A
10:20 PM52 °FLight rain. Overcast.31 mph88%29.95 "HgN/A
9:50 PM54 °FLight rain. Overcast.30 mph82%29.95 "HgN/A
9:20 PM52 °FLight rain. Overcast.28 mph82%29.95 "HgN/A
8:50 PM52 °FLight rain. Overcast.15 mph82%29.92 "HgN/A
8:20 PM52 °FLight rain. Overcast.14 mph88%29.92 "HgN/A
7:50 PM50 °FLight rain. Mostly cloudy.23 mph94%29.92 "HgN/A
7:20 PM50 °FLight rain. Mostly cloudy.14 mph88%29.92 "HgN/A
6:50 PM52 °FRain. Overcast.23 mph82%29.95 "HgN/A
6:20 PM54 °FPassing clouds.24 mph72%29.92 "HgN/A
5:50 PM52 °FPassing clouds.13 mph77%29.95 "HgN/A
5:20 PM52 °FPartly cloudy.22 mph77%29.95 "HgN/A
4:50 PM52 °FLight rain. Partly cloudy.23 mph82%29.95 "HgN/A
4:20 PM52 °FLight rain. Broken clouds.14 mph77%29.98 "HgN/A
3:50 PM52 °FBroken clouds.21 mph82%29.98 "HgN/A
3:20 PM52 °FBroken clouds.22 mph82%29.98 "HgN/A
2:50 PM50 °FLight rain. Broken clouds.17 mph94%30.01 "HgN/A
2:20 PM50 °FLight rain. Broken clouds.20 mph94%30.01 "HgN/A
1:50 PM48 °FLight rain. Broken clouds.10 mph100%30.01 "HgN/A
1:20 PM46 °FLight rain. Partly sunny.8 mph100%30.04 "HgN/A
12:50 PM46 °FRain. Mostly cloudy.8 mph100%30.04 "Hg5 mi
12:20 PM46 °FLight rain. Broken clouds.8 mph100%30.07 "HgN/A
11:50 AM46 °FLight rain. Mostly cloudy.7 mph100%30.07 "HgN/A
11:20 AM46 °FRain. Broken clouds.6 mph93%30.09 "HgN/A
10:50 AM46 °FRain. Cloudy.6 mph87%30.09 "HgN/A
10:20 AM46 °FLight rain. More clouds than sun.6 mph82%30.12 "HgN/A
Weather by CustomWeather, © 2015

See weather overviewHow to use our weather pages